User: anonymous   Login
Location: Unspecified
(0.0000°N, 0.0000°E)
Time: 19:19:55
(UTC+00:00)
Language:

GALILEO-FM4 - Orbit

View from above orbital plane
View from above orbital plane
View from above satellite
View from above satellite

Ground track
Ground track

The orbit data is extracted from the following two-line orbital elements,

1 38858U 12055B   18138.71627762 +.00000056 +00000-0 +00000-0 0  9995
2 38858 054.9068 182.7524 0004082 258.3056 101.7317 01.70473699034843
Epoch (UTC): 18 May 2018 17:11:26
Eccentricity: 0.0004082
inclination: 54.9068°
perigee height: 23210 km
apogee height: 23234 km
right ascension of ascending node: 182.7524°
argument of perigee: 258.3056°
revolutions per day: 1.70473699
mean anomaly at epoch: 101.7317°
orbit number at epoch: 3484

The dashed part of the orbit path shows where the satellite is in the earth's shadow,  

DLR